Cando, ND

8:15 PM CST on January 17, 2018 (GMT -0600)
Cando

Weather History for K9D7 - December, 2013

Change the Weather History Date:

Tuesday, December 3, 2013

  Actual Average (KDVL) Record (KDVL)
Temperature  
Mean Temperature 12 °F -  
Max Temperature 17 °F 24 °F 47 °F (1967)
Min Temperature 6 °F 9 °F -20 °F (1964)
Degree Days  
Heating Degree Days 54    
Moisture  
Dew Point 8 °F    
Average Humidity 84    
Maximum Humidity 93    
Minimum Humidity 73    
Precipitation  
Precipitation 0.84 in - - ()
Sea Level Pressure  
Sea Level Pressure 29.94 in    
Wind  
Wind Speed 21 mph (NNE)    
Max Wind Speed 29 mph    
Max Gust Speed 36 mph    
Visibility 3 miles    
Events Rain , Snow    
Averages and records for this station are not official NWS values.
T = Trace of Precipitation, MM = Missing Value Source: NWS Daily Summary

Daily Weather History Graph

Daily Weather History Graph

Search for Another Location

Airport or City:

Trip Planner

Search our weather history database for the weather conditions in past years. The results will help you decide how hot, cold, wet, or windy it might be!

Date:

Astronomy

Dec. 03, 2013 Rise Set
Actual Time 8:10 AM CST 4:43 PM CST
Civil Twilight 7:34 AM CST 5:19 PM CST
Nautical Twilight 6:54 AM CST 5:58 PM CST
Astronomical Twilight 6:16 AM CST 6:36 PM CST
Moon 8:39 AM CST (12/3) 5:50 PM CST (12/3)
Length of Visible Light 9h 45m
Length of Day
8h 32m
New Moon, 1% of the Moon is Illuminated
Dec 3
New Moon
Dec 9
First Quarter
Dec 17
Full
Dec 25
Last Quarter
Jan 1
New

Hourly Weather History & Observations

Time (CST) Temp. Windchill Dew Point Humidity Pressure Visibility Wind Dir Wind Speed Gust Speed Precip Events Conditions
12:15 AM 17.6 °F 2.2 °F 15.8 °F 93% 29.85 in 5.0 mi NE 17.3 mph 24.2 mph N/A   Overcast
12:35 AM 17.6 °F 1.3 °F 15.8 °F 93% 29.84 in 3.0 mi NNE 19.6 mph 25.3 mph N/A   Overcast
12:55 AM 17.6 °F 2.2 °F 14.0 °F 86% 29.84 in 3.0 mi NNE 17.3 mph 24.2 mph N/A   Overcast
1:15 AM 17.6 °F 1.7 °F 14.0 °F 86% 29.84 in 3.0 mi NNE 18.4 mph 29.9 mph N/A   Overcast
1:35 AM 15.8 °F -1.1 °F 14.0 °F 93% 29.85 in 2.0 mi NNE 19.6 mph 29.9 mph N/A Rain Light Freezing Rain
1:55 AM 15.8 °F -1.5 °F 14.0 °F 93% 29.86 in 2.0 mi NNE 20.7 mph 25.3 mph 0.01 in Rain Light Freezing Rain
2:15 AM 15.8 °F -1.9 °F 12.2 °F 86% 29.86 in 3.0 mi NNE 21.9 mph 28.8 mph N/A Rain Light Freezing Rain
2:35 AM 15.8 °F -2.3 °F 12.2 °F 86% 29.87 in 5.0 mi NNE 23.0 mph 27.6 mph N/A Rain Light Freezing Rain
2:55 AM 14.0 °F -4.3 °F 12.2 °F 93% 29.87 in 3.0 mi NNE 21.9 mph 31.1 mph 0.01 in Rain Light Freezing Rain
3:15 AM 14.0 °F -5.8 °F 10.4 °F 86% 29.87 in 2.5 mi NNE 26.5 mph 34.5 mph 0.01 in Snow Light Snow
3:35 AM 14.0 °F -4.3 °F 10.4 °F 86% 29.86 in 6.0 mi NNE 21.9 mph 28.8 mph 0.01 in Rain Light Freezing Rain
3:55 AM 14.0 °F -5.1 °F 10.4 °F 86% 29.86 in 8.0 mi NNE 24.2 mph 31.1 mph 0.01 in Rain Light Freezing Rain
4:15 AM 14.0 °F -5.1 °F 10.4 °F 86% 29.86 in 5.0 mi NNE 24.2 mph 32.2 mph N/A Rain Light Freezing Rain
4:35 AM 14.0 °F -5.1 °F 10.4 °F 86% 29.88 in 3.0 mi NNE 24.2 mph 29.9 mph N/A Snow Light Snow
4:55 AM 14.0 °F -5.5 °F 10.4 °F 86% 29.89 in 4.0 mi NNE 25.3 mph 32.2 mph 0.01 in Snow Light Snow
5:15 AM 14.0 °F -5.8 °F 8.6 °F 79% 29.89 in 4.0 mi NNE 26.5 mph 35.7 mph N/A Rain Light Freezing Rain
5:35 AM 12.2 °F -6.7 °F 8.6 °F 85% 29.91 in 4.0 mi North 21.9 mph 32.2 mph N/A Rain Light Freezing Rain
5:55 AM 10.4 °F -10.7 °F 8.6 °F 92% 29.91 in 3.0 mi NNE 26.5 mph 29.9 mph N/A Rain Light Freezing Rain
6:15 AM 10.4 °F -9.9 °F 6.8 °F 85% 29.90 in 3.0 mi NNE 24.2 mph 34.5 mph N/A Rain Light Freezing Rain
6:35 AM 10.4 °F -9.1 °F 6.8 °F 85% 29.90 in 4.0 mi NNE 21.9 mph 28.8 mph N/A Rain Light Freezing Rain
6:55 AM 10.4 °F -8.2 °F 6.8 °F 85% 29.91 in 2.5 mi North 19.6 mph 28.8 mph N/A Rain Light Freezing Rain
7:15 AM 10.4 °F -8.6 °F 6.8 °F 85% 29.91 in 2.5 mi NNE 20.7 mph 29.9 mph N/A Rain Light Freezing Rain
7:35 AM 10.4 °F -7.7 °F 6.8 °F 85% 29.93 in 3.0 mi North 18.4 mph 24.2 mph N/A Rain Light Freezing Rain
7:55 AM 10.4 °F -8.6 °F 6.8 °F 85% 29.95 in 3.0 mi North 20.7 mph 29.9 mph N/A Rain Light Freezing Rain
8:15 AM 10.4 °F -9.1 °F 6.8 °F 85% 29.93 in 2.0 mi North 21.9 mph 29.9 mph N/A Rain Light Freezing Rain
8:35 AM 10.4 °F -9.9 °F 6.8 °F 85% 29.94 in 2.5 mi NNE 24.2 mph 28.8 mph N/A Rain Light Freezing Rain
8:55 AM 10.4 °F -9.9 °F 6.8 °F 85% 29.94 in 3.0 mi NNE 24.2 mph 33.4 mph N/A Rain Light Freezing Rain
9:15 AM 10.4 °F -9.5 °F 6.8 °F 85% 29.94 in 3.0 mi NNE 23.0 mph 29.9 mph N/A Rain Light Freezing Rain
9:35 AM 10.4 °F -9.9 °F 6.8 °F 85% 29.95 in 3.0 mi NNE 24.2 mph 31.1 mph N/A Rain Light Freezing Rain
9:55 AM 10.4 °F -7.2 °F 6.8 °F 85% 29.96 in 3.0 mi NNE 17.3 mph 25.3 mph N/A Rain Light Freezing Rain
10:15 AM 12.2 °F -8.9 °F 8.6 °F 85% 29.95 in 2.0 mi NNE 28.8 mph 35.7 mph N/A Rain Light Freezing Rain
10:35 AM 12.2 °F -7.9 °F 8.6 °F 85% 29.95 in 2.5 mi NNE 25.3 mph 32.2 mph N/A Rain Light Freezing Rain
10:55 AM 12.2 °F -7.9 °F 8.6 °F 85% 29.95 in 2.5 mi NNE 25.3 mph 33.4 mph N/A Rain Light Freezing Rain
11:15 AM 12.2 °F -6.7 °F 8.6 °F 85% 29.95 in 1.8 mi NNE 21.9 mph 33.4 mph N/A Rain Light Freezing Rain
11:35 AM 14.0 °F -5.8 °F 8.6 °F 79% 29.96 in 3.0 mi NNE 26.5 mph 31.1 mph N/A Rain Light Freezing Rain
11:55 AM 14.0 °F -5.1 °F 8.6 °F 79% 29.95 in 1.8 mi NNE 24.2 mph 32.2 mph N/A Rain Light Freezing Rain
12:15 PM 12.2 °F -8.6 °F 8.6 °F 85% 29.94 in 1.2 mi NNE 27.6 mph 34.5 mph N/A Rain Light Freezing Rain
12:35 PM 14.0 °F -6.2 °F 8.6 °F 79% 29.94 in 2.0 mi NNE 27.6 mph 33.4 mph N/A Rain Light Freezing Rain
12:55 PM 14.0 °F -5.5 °F 8.6 °F 79% 29.94 in 1.5 mi NNE 25.3 mph 33.4 mph 0.01 in Rain Light Freezing Rain
1:15 PM 14.0 °F -5.8 °F 8.6 °F 79% 29.93 in 2.0 mi NNE 26.5 mph 35.7 mph N/A Rain Light Freezing Rain
1:35 PM 14.0 °F -5.8 °F 8.6 °F 79% 29.93 in 2.5 mi NNE 26.5 mph 34.5 mph N/A Rain Light Freezing Rain
1:55 PM 14.0 °F -5.1 °F 8.6 °F 79% 29.93 in 3.0 mi NNE 24.2 mph 34.5 mph N/A Rain Light Freezing Rain
2:15 PM 14.0 °F -4.3 °F 6.8 °F 73% 29.94 in 6.0 mi NNE 21.9 mph 35.7 mph N/A   Haze
2:35 PM 14.0 °F -5.1 °F 8.6 °F 79% 29.94 in 3.0 mi NNE 24.2 mph 32.2 mph N/A Rain Light Freezing Rain
2:55 PM 14.0 °F -2.5 °F 6.8 °F 73% 29.96 in 9.0 mi NNE 17.3 mph 26.5 mph N/A   Overcast
3:15 PM 12.2 °F -7.1 °F 6.8 °F 79% 29.95 in 7.0 mi NNE 23.0 mph 31.1 mph N/A Rain Light Freezing Rain
3:35 PM 12.2 °F -7.1 °F 6.8 °F 79% 29.96 in 4.0 mi NNE 23.0 mph 28.8 mph N/A Rain Light Freezing Rain
3:55 PM 12.2 °F -6.3 °F 6.8 °F 79% 29.96 in 6.0 mi NNE 20.7 mph 32.2 mph N/A Snow Light Snow
4:15 PM 10.4 °F -8.6 °F 6.8 °F 85% 29.97 in 3.0 mi North 20.7 mph 25.3 mph N/A Rain Light Freezing Rain
4:35 PM 10.4 °F -7.2 °F 6.8 °F 85% 29.97 in 3.0 mi North 17.3 mph 21.9 mph N/A Snow Light Snow
4:55 PM 10.4 °F -6.6 °F 6.8 °F 85% 29.98 in 2.5 mi North 16.1 mph 21.9 mph N/A Snow Light Snow
5:15 PM 10.4 °F -6.0 °F 6.8 °F 85% 29.98 in 1.8 mi North 15.0 mph 20.7 mph N/A Snow Light Snow
5:35 PM 10.4 °F -7.2 °F 6.8 °F 85% 29.98 in 2.0 mi North 17.3 mph 24.2 mph 0.02 in Snow Light Snow
5:55 PM 10.4 °F -6.6 °F 6.8 °F 85% 29.98 in 2.5 mi North 16.1 mph 21.9 mph 0.04 in Snow Light Snow
6:15 PM 8.6 °F -10.0 °F 6.8 °F 92% 29.99 in 2.0 mi North 18.4 mph 21.9 mph 0.01 in Snow Light Snow
6:35 PM 8.6 °F -11.0 °F 5.0 °F 85% 29.98 in 3.0 mi NNE 20.7 mph 27.6 mph 0.02 in Snow Light Snow
6:55 PM 8.6 °F -10.0 °F 5.0 °F 85% 29.99 in 2.0 mi North 18.4 mph 25.3 mph 0.05 in Snow Light Snow
7:15 PM 8.6 °F -10.0 °F 5.0 °F 85% 30.00 in 2.5 mi North 18.4 mph 24.2 mph 0.02 in Snow Light Snow
7:35 PM 8.6 °F -10.5 °F 5.0 °F 85% 30.00 in 3.0 mi North 19.6 mph - 0.04 in Snow Light Snow
7:55 PM 8.6 °F -10.5 °F 5.0 °F 85% 29.99 in 7.0 mi North 19.6 mph 25.3 mph 0.04 in Rain Light Freezing Rain
8:15 PM 8.6 °F -10.5 °F 5.0 °F 85% 29.99 in 5.0 mi NNE 19.6 mph 23.0 mph N/A Rain Light Freezing Rain
8:35 PM 8.6 °F -11.4 °F 5.0 °F 85% 29.99 in 5.0 mi North 21.9 mph 28.8 mph N/A Rain Light Freezing Rain
8:55 PM 8.6 °F -10.0 °F 5.0 °F 85% 29.99 in 7.0 mi North 18.4 mph 26.5 mph N/A Rain Light Freezing Rain
9:15 PM 8.6 °F -10.5 °F 5.0 °F 85% 29.98 in 5.0 mi NNE 19.6 mph 28.8 mph N/A Rain Light Freezing Rain
9:35 PM 8.6 °F -11.0 °F 5.0 °F 85% 29.98 in 4.0 mi North 20.7 mph 31.1 mph N/A Snow Light Snow
9:55 PM 8.6 °F -10.5 °F 5.0 °F 85% 30.00 in 5.0 mi North 19.6 mph 26.5 mph N/A Rain Light Freezing Rain
10:15 PM 6.8 °F -13.4 °F 5.0 °F 92% 29.99 in 6.0 mi North 20.7 mph 26.5 mph N/A Snow Light Snow
10:35 PM 6.8 °F -14.3 °F 3.2 °F 85% 29.98 in 1.0 mi North 23.0 mph 28.8 mph 0.11 in Snow Light Snow
10:55 PM 6.8 °F -14.7 °F 3.2 °F 85% 29.97 in 1.0 mi North 24.2 mph 29.9 mph 0.45 in Snow Light Snow
11:15 PM 6.8 °F -15.1 °F 3.2 °F 85% 29.97 in 1.2 mi North 25.3 mph 29.9 mph 0.10 in Rain Light Freezing Rain
11:35 PM 6.8 °F -14.3 °F 1.4 °F 79% 29.98 in 2.0 mi North 23.0 mph 28.8 mph 0.17 in Rain Light Freezing Rain
11:55 PM 6.8 °F -14.7 °F 1.4 °F 79% 29.98 in 2.0 mi North 24.2 mph 29.9 mph 0.21 in Rain Light Freezing Rain